| time (UTC) | temp F | wind direction | speed MPH | gust MPH | rain 1hr in | rain 24hr in | rain mn in | humidity % | barometer mb |
| 20260504044550 | 52 | 212 | 1.0 | 5.0 | 0.00 | 0.00 | 0.00 | 74 | 1010.8 |
| 20260504043059 | 52 | 181 | 1.0 | 6.0 | 0.00 | 0.00 | 0.00 | 74 | 1010.7 |
| 20260504041556 | 52 | 182 | 1.0 | 7.0 | 0.00 | 0.00 | 0.00 | 75 | 1010.8 |
| 20260504034555 | 52 | 216 | 1.0 | 6.0 | 0.00 | 0.00 | 0.00 | 74 | 1011.2 |
| 20260504033058 | 52 | 173 | 2.0 | 7.0 | 0.00 | 0.00 | 0.00 | 73 | 1011.2 |
| 20260504031548 | 52 | 194 | 1.0 | 4.0 | 0.00 | 0.00 | 0.00 | 73 | 1011.4 |
| 20260504030054 | 53 | 0 | 1.0 | 3.0 | 0.00 | 0.00 | 0.00 | 72 | 1011.4 |
| 20260504024554 | 54 | 191 | 1.0 | 5.0 | 0.00 | 0.00 | 0.00 | 70 | 1011.4 |
| 20260504023052 | 54 | 0 | 1.0 | 7.0 | 0.00 | 0.00 | 0.00 | 70 | 1011.5 |
| 20260504021552 | 54 | 200 | 1.0 | 7.0 | 0.00 | 0.00 | 0.00 | 70 | 1011.6 |
| 20260504014557 | 55 | 165 | 0.0 | 4.0 | 0.00 | 0.00 | 0.00 | 68 | 1011.6 |
| 20260504013051 | 55 | 165 | 1.0 | 7.0 | 0.00 | 0.00 | 0.00 | 66 | 1011.6 |
| 20260504011550 | 56 | 205 | 2.0 | 5.0 | 0.00 | 0.00 | 0.00 | 65 | 1011.5 |
| 20260504010050 | 56 | 207 | 2.0 | 7.0 | 0.00 | 0.00 | 0.00 | 64 | 1011.5 |
| 20260504004553 | 56 | 198 | 1.0 | 5.0 | 0.00 | 0.00 | 0.00 | 62 | 1011.5 |
| 20260504003057 | 57 | 244 | 3.0 | 8.0 | 0.00 | 0.00 | 0.00 | 60 | 1011.5 |
| 20260504001556 | 57 | 214 | 2.0 | 8.0 | 0.00 | 0.00 | 0.00 | 60 | 1011.5 |
| 20260504000058 | 57 | 229 | 4.0 | 11.0 | 0.00 | 0.00 | 0.00 | 59 | 1011.6 |
| 20260503234551 | 58 | 217 | 3.0 | 10.0 | 0.00 | 0.00 | 0.00 | 58 | 1011.5 |
| 20260503233051 | 58 | 207 | 3.0 | 8.0 | 0.00 | 0.00 | 0.00 | 59 | 1011.6 |
| 20260503231550 | 58 | 207 | 2.0 | 9.0 | 0.00 | 0.00 | 0.00 | 59 | 1011.5 |
| 20260503230105 | 58 | 224 | 2.0 | 8.0 | 0.00 | 0.00 | 0.00 | 59 | 1011.5 |
| 20260503224559 | 58 | 170 | 2.0 | 9.0 | 0.00 | 0.00 | 0.00 | 56 | 1011.7 |
| 20260503223053 | 59 | 203 | 4.0 | 9.0 | 0.00 | 0.00 | 0.00 | 56 | 1011.9 |
| 20260503221546 | 59 | 190 | 4.0 | 11.0 | 0.00 | 0.00 | 0.00 | 54 | 1011.8 |
| 20260503220056 | 58 | 205 | 3.0 | 9.0 | 0.00 | 0.00 | 0.00 | 55 | 1012.0 |
| 20260503214547 | 59 | 214 | 3.0 | 11.0 | 0.00 | 0.00 | 0.00 | 53 | 1012.6 |
| 20260503213056 | 60 | 226 | 4.0 | 16.0 | 0.00 | 0.00 | 0.00 | 52 | 1012.7 |
| 20260503211606 | 59 | 192 | 2.0 | 8.0 | 0.00 | 0.00 | 0.00 | 58 | 1012.9 |
| 20260503210054 | 59 | 215 | 3.0 | 13.0 | 0.00 | 0.00 | 0.00 | 55 | 1013.1 |
| 20260503204551 | 56 | 101 | 1.0 | 6.0 | 0.00 | 0.00 | 0.00 | 62 | 1013.3 |
| 20260503203053 | 55 | 0 | 2.0 | 7.0 | 0.00 | 0.00 | 0.00 | 65 | 1013.6 |
| 20260503201552 | 52 | 86 | 2.0 | 6.0 | 0.00 | 0.00 | 0.00 | 67 | 1014.2 |
| 20260503200101 | 51 | 0 | 0.0 | 2.0 | 0.00 | 0.00 | 0.00 | 71 | 1014.5 |
| 20260503194602 | 52 | 0 | 0.0 | 3.0 | 0.00 | 0.00 | 0.00 | 70 | 1015.8 |
| 20260503193101 | 52 | 0 | 0.0 | 17.0 | 0.00 | 0.00 | 0.00 | 65 | 1015.6 |
| 20260503191555 | 54 | 275 | 4.0 | 13.0 | 0.00 | 0.00 | 0.00 | 60 | 1016.0 |
| 20260503190053 | 56 | 261 | 5.0 | 20.0 | 0.00 | 0.00 | 0.00 | 51 | 1015.6 |
| 20260503184601 | 57 | 234 | 4.0 | 12.0 | 0.00 | 0.00 | 0.00 | 49 | 1015.6 |
| 20260503183100 | 58 | 213 | 5.0 | 13.0 | 0.00 | 0.00 | 0.00 | 49 | 1015.9 |
| 20260503181610 | 59 | 242 | 3.0 | 11.0 | 0.00 | 0.00 | 0.00 | 48 | 1016.0 |
| 20260503180112 | 60 | 234 | 5.0 | 17.0 | 0.00 | 0.00 | 0.00 | 49 | 1016.2 |
| 20260503174556 | 60 | 277 | 7.0 | 22.0 | 0.00 | 0.00 | 0.00 | 44 | 1016.3 |
| 20260503173104 | 60 | 221 | 6.0 | 20.0 | 0.00 | 0.00 | 0.00 | 46 | 1016.4 |
| 20260503171555 | 59 | 238 | 8.0 | 16.0 | 0.00 | 0.00 | 0.00 | 47 | 1016.4 |
| 20260503150103 | 53 | 240 | 10.0 | 19.0 | 0.00 | 0.00 | 0.00 | 61 | 1018.2 |
| 20260503081549 | 31 | 0 | 0.0 | 0.0 | 0.00 | 0.00 | 0.00 | 92 | 1017.5 |
| 20260503071600 | 31 | 0 | 0.0 | 0.0 | 0.00 | 0.00 | 0.00 | 92 | 1017.4 |
| 20260503054550 | 32 | 0 | 0.0 | 0.0 | 0.00 | 0.00 | 0.00 | 91 | 1018.1 |
| 20260503053050 | 32 | 0 | 0.0 | 0.0 | 0.00 | 0.00 | 0.00 | 91 | 1018.1 |
| 20260503051550 | 32 | 0 | 0.0 | 0.0 | 0.00 | 0.00 | 0.00 | 90 | 1018.2 |
| 20260503050056 | 32 | 0 | 0.0 | 0.0 | 0.00 | 0.00 | 0.00 | 90 | 1018.0 |